TimeMDT,TemperatureF,Dew PointF,Humidity,Sea Level PressureIn,VisibilityMPH,Wind Direction,Wind SpeedMPH,Gust SpeedMPH,PrecipitationIn,Events,Conditions,WindDirDegrees,DateUTC
12:53 AM,33.1,27.0,78,29.99,10.0,East,11.5,-,N/A,,Overcast,80,2013-04-05 06:53:00
1:53 AM,33.1,27.0,78,29.95,10.0,East,13.8,-,N/A,,Overcast,80,2013-04-05 07:53:00
2:53 AM,33.1,27.0,78,29.91,10.0,ENE,12.7,-,0.00,,Overcast,70,2013-04-05 08:53:00
3:53 AM,34.0,27.0,75,29.88,10.0,East,11.5,-,N/A,,Overcast,80,2013-04-05 09:53:00
4:53 AM,34.0,28.0,79,29.85,10.0,ENE,10.4,-,N/A,,Overcast,70,2013-04-05 10:53:00
5:53 AM,34.0,28.9,82,29.83,10.0,ENE,9.2,-,0.01,,Overcast,70,2013-04-05 11:53:00
6:53 AM,34.0,28.9,82,29.80,10.0,East,8.1,-,0.00,,Mostly Cloudy,80,2013-04-05 12:53:00
7:53 AM,35.1,30.0,82,29.78,10.0,ENE,9.2,-,N/A,,Mostly Cloudy,60,2013-04-05 13:53:00
8:53 AM,37.0,30.9,79,29.77,10.0,ENE,8.1,-,N/A,,Overcast,70,2013-04-05 14:53:00
9:53 AM,44.1,30.0,58,29.73,10.0,ESE,9.2,-,N/A,,Partly Cloudy,120,2013-04-05 15:53:00
10:53 AM,48.0,30.9,52,29.71,10.0,SE,3.5,-,N/A,,Unknown,130,2013-04-05 16:53:00
11:53 AM,54.0,30.9,41,29.68,10.0,ESE,4.6,-,N/A,,Clear,120,2013-04-05 17:53:00
12:53 PM,57.9,33.1,39,29.64,10.0,Calm,Calm,-,N/A,,Clear,0,2013-04-05 18:53:00
1:53 PM,57.9,35.1,42,29.62,10.0,Calm,Calm,-,N/A,,Clear,0,2013-04-05 19:53:00
2:53 PM,63.0,37.0,38,29.61,10.0,NNW,5.8,-,N/A,,Clear,330,2013-04-05 20:53:00
3:53 PM,64.9,37.0,36,29.60,10.0,NW,4.6,-,N/A,,Clear,320,2013-04-05 21:53:00
4:53 PM,62.1,39.0,43,29.61,10.0,ESE,5.8,-,N/A,,Clear,120,2013-04-05 22:53:00
5:53 PM,59.0,42.1,53,29.62,10.0,East,5.8,-,N/A,,Mostly Cloudy,100,2013-04-05 23:53:00
6:53 PM,55.0,42.1,62,29.64,10.0,ESE,3.5,-,N/A,,Clear,110,2013-04-06 00:53:00
7:53 PM,51.1,42.1,71,29.64,10.0,ESE,4.6,-,N/A,,Mostly Cloudy,110,2013-04-06 01:53:00
8:53 PM,48.0,42.1,80,29.66,10.0,Calm,Calm,-,N/A,,Scattered Clouds,0,2013-04-06 02:53:00
9:53 PM,51.1,45.0,80,29.67,10.0,SSW,6.9,-,0.00,Rain,Light Rain,210,2013-04-06 03:53:00
10:53 PM,46.0,42.1,86,29.67,10.0,WNW,6.9,-,0.00,,Mostly Cloudy,300,2013-04-06 04:53:00
11:53 PM,53.1,39.9,61,29.67,10.0,NNW,17.3,32.2,0.00,Rain,Light Rain,330,2013-04-06 05:53:00